Weather History for New Richmond, WI

Change the Weather History Date:

Tuesday, October 11, 2011

  Actual Average (KMSP) Record (KMSP)
Temperature  
Mean Temperature 62 °F 51 °F  
Max Temperature 73 °F 61 °F 84 °F (1930)
Min Temperature 50 °F 41 °F 22 °F (1876)
Degree Days  
Heating Degree Days 4 14  
Month to date heating degree days 136  
Since 1 July heating degree days 309  
Cooling Degree Days 0 0  
Month to date cooling degree days 3  
Year to date cooling degree days 750  
Growing Degree Days 12 (Base 50)    
Moisture  
Dew Point 50 °F    
Average Humidity 70    
Maximum Humidity 100    
Minimum Humidity 38    
Precipitation  
Precipitation 0.00 in 0.09 in 1.36 in (1881)
Month to date precipitation 1.01  
Year to date precipitation 26.26  
Snow  
Snow 0.00 in 0.00 in 0.50 in (1917)
Month to date snowfall 0.0  
Since 1 July snowfall T  
Since 1 September snowfall T  
Snow Depth -    
Sea Level Pressure  
Sea Level Pressure 29.89 in    
Wind  
Wind Speed 6 mph (SSE)    
Max Wind Speed 13 mph    
Max Gust Speed 20 mph    
Visibility 9 miles    
Events      
T = Trace of Precipitation, MM = Missing Value Source: NWS Daily Summary

Daily Weather History Graph

Daily Weather History Graph

Search for Another Location

Airport:

Trip Planner

Search our weather history database for the weather conditions in past years. The results will help you decide how hot, cold, wet, or windy it might be!

Date:

Astronomy

Oct. 11, 2011 Rise Set
Actual Time 7:20 AM CDT 6:32 PM CDT
Civil Twilight 6:50 AM CDT 7:02 PM CDT
Nautical Twilight 6:16 AM CDT 7:36 PM CDT
Astronomical Twilight 5:42 AM CDT 8:10 PM CDT
Moon 6:01 PM CDT (10/11) 7:00 AM CDT (10/11)
Length of Visible Light 12h 11m
Length of Day
11h 12m
Full, 100% of the Moon is Illuminated
Oct 11
Full
Oct 11
Full
Oct 19
Last Quarter
Oct 26
New
Nov 2
First Quarter

Hourly Weather History & Observations

Time (CDT) Temp. Dew Point Humidity Pressure Visibility Wind Dir Wind Speed Gust Speed Precip Events Conditions
12:35 AM 55.4 °F 53.6 °F 94% 29.94 in 10.0 mi South 5.8 mph - N/A   Clear
12:55 AM 55.4 °F 53.6 °F 94% 29.94 in 10.0 mi South 6.9 mph - N/A   Clear
1:15 AM 55.4 °F 53.6 °F 94% 29.94 in 10.0 mi South 4.6 mph - N/A   Clear
1:55 AM 55.4 °F 53.6 °F 94% 29.94 in 10.0 mi South 5.8 mph - N/A   Clear
2:15 AM 55.4 °F 51.8 °F 88% 29.93 in 10.0 mi SSE 5.8 mph - N/A   Clear
2:35 AM 53.6 °F 51.8 °F 94% 29.93 in 10.0 mi SSE 4.6 mph - N/A   Clear
3:35 AM 51.8 °F 50.0 °F 94% 29.93 in 7.0 mi SSE 3.5 mph - N/A   Clear
3:55 AM 51.8 °F 51.8 °F 100% 29.93 in 7.0 mi SE 4.6 mph - N/A   Clear
4:15 AM 51.8 °F 50.0 °F 94% 29.92 in 7.0 mi Calm Calm - N/A   Clear
4:35 AM 50.0 °F 50.0 °F 100% 29.92 in 7.0 mi Calm Calm - N/A   Clear
5:15 AM 50.0 °F 50.0 °F 100% 29.93 in 5.0 mi SE 4.6 mph - N/A   Clear
5:35 AM 51.8 °F 50.0 °F 94% 29.93 in 7.0 mi SE 4.6 mph - N/A   Clear
5:55 AM 50.0 °F 50.0 °F 100% 29.94 in 5.0 mi SE 5.8 mph - N/A   Clear
6:35 AM 51.8 °F 51.8 °F 100% 29.93 in 7.0 mi SSE 4.6 mph - N/A   Clear
6:55 AM 51.8 °F 50.0 °F 94% 29.93 in 7.0 mi SSE 3.5 mph - N/A   Clear
7:35 AM 51.8 °F 51.8 °F 100% 29.93 in 5.0 mi SSE 3.5 mph - N/A   Clear
8:15 AM 53.6 °F 51.8 °F 94% 29.93 in 7.0 mi SSE 4.6 mph - N/A   Clear
8:35 AM 55.4 °F 53.6 °F 94% 29.93 in 7.0 mi SSE 3.5 mph - N/A   Clear
8:55 AM 57.2 °F 53.6 °F 88% 29.93 in 10.0 mi SSE 4.6 mph - N/A   Clear
9:15 AM 59.0 °F 55.4 °F 88% 29.93 in 10.0 mi South 5.8 mph - N/A   Clear
9:55 AM 60.8 °F 55.4 °F 82% 29.92 in 10.0 mi SSE 9.2 mph - N/A   Clear
10:15 AM 62.6 °F 53.6 °F 72% 29.92 in 10.0 mi South 8.1 mph - N/A   Clear
10:35 AM 64.4 °F 53.6 °F 68% 29.91 in 10.0 mi South 8.1 mph - N/A   Clear
10:55 AM 66.2 °F 53.6 °F 64% 29.91 in 10.0 mi SSW 9.2 mph - N/A   Clear
11:15 AM 66.2 °F 53.6 °F 64% 29.90 in 10.0 mi South 8.1 mph - N/A   Clear
11:35 AM 68.0 °F 51.8 °F 56% 29.90 in 10.0 mi South 10.4 mph - N/A   Clear
11:55 AM 69.8 °F 51.8 °F 53% 29.90 in 10.0 mi South 6.9 mph - N/A   Clear
12:15 PM 69.8 °F 50.0 °F 49% 29.90 in 10.0 mi SSE 9.2 mph 16.1 mph N/A   Clear
12:35 PM 71.6 °F 50.0 °F 46% 29.90 in 10.0 mi South 11.5 mph - N/A   Scattered Clouds
12:55 PM 71.6 °F 48.2 °F 43% 29.89 in 10.0 mi South 6.9 mph 18.4 mph N/A   Clear
1:15 PM 71.6 °F 48.2 °F 43% 29.88 in 10.0 mi South 8.1 mph - N/A   Clear
1:35 PM 71.6 °F 46.4 °F 41% 29.87 in 10.0 mi South 9.2 mph 16.1 mph N/A   Clear
2:15 PM 73.4 °F 50.0 °F 44% 29.86 in 10.0 mi SSW 10.4 mph - N/A   Clear
2:35 PM 73.4 °F 46.4 °F 38% 29.86 in 10.0 mi South 12.7 mph 19.6 mph N/A   Scattered Clouds
3:15 PM 73.4 °F 46.4 °F 38% 29.85 in 10.0 mi South 11.5 mph 17.3 mph N/A   Clear
3:35 PM 73.4 °F 48.2 °F 41% 29.84 in 10.0 mi SSW 11.5 mph 17.3 mph N/A   Scattered Clouds
3:55 PM 73.4 °F 46.4 °F 38% 29.84 in 10.0 mi SSW 10.4 mph - N/A   Scattered Clouds
4:15 PM 73.4 °F 46.4 °F 38% 29.84 in 10.0 mi South 10.4 mph - N/A   Clear
4:35 PM 73.4 °F 46.4 °F 38% 29.84 in 10.0 mi South 12.7 mph - N/A   Clear
4:55 PM 71.6 °F 44.6 °F 38% 29.83 in 10.0 mi SSW 11.5 mph - N/A   Clear
5:55 PM 69.8 °F 46.4 °F 43% 29.82 in 10.0 mi SSW 6.9 mph - N/A   Scattered Clouds
6:15 PM 69.8 °F 46.4 °F 43% 29.82 in 10.0 mi South 5.8 mph - N/A   Scattered Clouds
6:35 PM 68.0 °F 46.4 °F 46% 29.83 in 10.0 mi SE 3.5 mph - N/A   Scattered Clouds
6:55 PM 64.4 °F 46.4 °F 52% 29.83 in 10.0 mi SE 4.6 mph - N/A   Clear
7:15 PM 62.6 °F 48.2 °F 59% 29.83 in 10.0 mi SE 5.8 mph - N/A   Clear
7:35 PM 62.6 °F 50.0 °F 63% 29.83 in 10.0 mi SE 6.9 mph - N/A   Clear
7:55 PM 62.6 °F 50.0 °F 63% 29.83 in 10.0 mi SE 5.8 mph - N/A   Clear
8:15 PM 60.8 °F 50.0 °F 68% 29.83 in 10.0 mi SE 5.8 mph - N/A   Clear
8:35 PM 60.8 °F 50.0 °F 68% 29.83 in 10.0 mi SE 5.8 mph - N/A   Clear
8:55 PM 59.0 °F 50.0 °F 72% 29.84 in 10.0 mi SE 5.8 mph - N/A   Clear
9:15 PM 60.8 °F 51.8 °F 72% 29.84 in 10.0 mi SE 6.9 mph - N/A   Scattered Clouds
9:35 PM 59.0 °F 51.8 °F 77% 29.84 in 10.0 mi SE 4.6 mph - N/A   Scattered Clouds
9:55 PM 59.0 °F 51.8 °F 77% 29.84 in 10.0 mi SE 3.5 mph - N/A   Mostly Cloudy
10:35 PM 60.8 °F 53.6 °F 77% 29.84 in 10.0 mi SE 6.9 mph - N/A   Mostly Cloudy
10:55 PM 59.0 °F 53.6 °F 82% 29.84 in 10.0 mi SE 5.8 mph - N/A   Scattered Clouds
11:15 PM 60.8 °F 53.6 °F 77% 29.84 in 10.0 mi SE 5.8 mph - N/A   Mostly Cloudy
11:35 PM 60.8 °F 53.6 °F 77% 29.84 in 10.0 mi SSE 4.6 mph - N/A   Overcast
11:55 PM 60.8 °F 53.6 °F 77% 29.83 in 10.0 mi SSE 5.8 mph - N/A   Overcast